Chadron, NE

11:01 AM MDT on March 27, 2017 (GMT -0600)
Chadron Municipal

Weather History for KCDR - December, 2013

Change the Weather History Date:

Wednesday, December 4, 2013

  Actual Average Record
Temperature  
Mean Temperature 5 °F 26 °F  
Max Temperature 11 °F 40 °F 72 °F (1980)
Min Temperature -2 °F 12 °F -7 °F (2005)
Degree Days  
Heating Degree Days 60 39  
Month to date heating degree days 152 154  
Since 1 July heating degree days 1788 1838  
Cooling Degree Days 0 0  
Month to date cooling degree days 0 0  
Year to date cooling degree days 917 712  
Moisture  
Dew Point 2 °F    
Average Humidity 81    
Maximum Humidity 92    
Minimum Humidity 69    
Precipitation  
Precipitation T in 0.02 in 0.25 in (1960)
Month to date precipitation T 0.07  
Year to date precipitation 19.10 17.60  
Sea Level Pressure  
Sea Level Pressure 30.04 in    
Wind  
Wind Speed 16 mph (NW)    
Max Wind Speed 30 mph    
Max Gust Speed 38 mph    
Visibility 3 miles    
Events Snow    
T = Trace of Precipitation, MM = Missing Value Source: NWS Daily Summary

Daily Weather History Graph

Daily Weather History Graph

Search for Another Location

Airport or City:

Trip Planner

Search our weather history database for the weather conditions in past years. The results will help you decide how hot, cold, wet, or windy it might be!

Date:

Astronomy

Dec. 04, 2013 Rise Set
Actual Time 7:06 AM MST 4:18 PM MST
Civil Twilight 6:35 AM MST 4:50 PM MST
Nautical Twilight 5:59 AM MST 5:25 PM MST
Astronomical Twilight 5:25 AM MST 5:59 PM MST
Moon 8:36 AM MST (12/4) 6:32 PM MST (12/4)
Length of Visible Light 10h 15m
Length of Day
9h 11m
Waxing Crescent, 5% of the Moon is Illuminated
Dec 4
Waxing Crescent
Dec 9
First Quarter
Dec 17
Full
Dec 25
Last Quarter
Jan 1
New

Hourly Weather History & Observations

Time (MST) Temp. Windchill Dew Point Humidity Pressure Visibility Wind Dir Wind Speed Gust Speed Precip Events Conditions
12:00 AM 10.4 °F 4.0 °F 8.6 °F 92% 29.87 in 1.0 mi NW 3.5 mph - 0.00 in Snow Light Snow
12:28 AM 10.4 °F 2.2 °F 8.6 °F 92% 29.87 in 0.8 mi WNW 4.6 mph - 0.00 in Snow Light Snow
12:43 AM 10.4 °F -6.0 °F 6.8 °F 85% 29.86 in 1.2 mi NW 15.0 mph 20.7 mph 0.00 in Snow Light Snow
12:53 AM 10.9 °F -5.9 °F 7.0 °F 84% 30.04 in 1.0 mi NW 16.1 mph - 0.00 in Snow Light Snow
1:06 AM 10.4 °F -6.6 °F 6.8 °F 85% 29.87 in 0.8 mi NW 16.1 mph 20.7 mph 0.00 in Snow Light Snow
1:28 AM 10.4 °F -3.3 °F 6.8 °F 85% 29.84 in 1.0 mi NW 10.4 mph - 0.00 in Snow Light Snow
1:38 AM 10.4 °F -4.8 °F 6.8 °F 85% 29.85 in 1.2 mi NW 12.7 mph - 0.00 in Snow Light Snow
1:53 AM 9.0 °F -7.3 °F 6.1 °F 88% 30.04 in 1.8 mi NW 13.8 mph - 0.00 in Snow Light Snow
2:01 AM 8.6 °F -5.5 °F 6.8 °F 92% 29.86 in 2.0 mi NW 10.4 mph - 0.00 in Snow Light Snow
2:41 AM 8.6 °F -8.9 °F 3.2 °F 79% 29.87 in 2.0 mi NW 16.1 mph - 0.00 in Snow Blowing Snow
2:53 AM 9.0 °F -6.6 °F 5.0 °F 84% 30.05 in 1.8 mi NW 12.7 mph - 0.00 in Snow Light Snow
3:48 AM 8.6 °F -5.5 °F 5.0 °F 85% 29.82 in 1.0 mi North 10.4 mph - 0.00 in Snow Light Snow
3:53 AM 8.1 °F -6.2 °F 5.0 °F 87% 30.01 in 1.0 mi NNE 10.4 mph - 0.00 in Snow Light Snow
4:20 AM 8.6 °F 2.0 °F 5.0 °F 85% 29.87 in 1.0 mi North 3.5 mph - 0.00 in Snow Light Snow
4:53 AM 8.1 °F - 3.9 °F 83% 30.07 in 1.2 mi Calm Calm - 0.00 in Snow Light Snow
5:53 AM 7.0 °F 0.1 °F 3.9 °F 87% 30.07 in 1.2 mi North 3.5 mph - 0.00 in Snow Light Snow
6:53 AM 7.0 °F - 5.0 °F 92% 30.08 in 1.5 mi Calm Calm - 0.00 in Snow Light Snow
7:39 AM 8.6 °F 0.1 °F 5.0 °F 85% 29.88 in 0.8 mi North 4.6 mph - 0.00 in Snow Light Snow
7:53 AM 8.1 °F -3.2 °F 3.9 °F 83% 30.10 in 1.0 mi NW 6.9 mph - 0.00 in Snow Light Snow
8:37 AM 8.6 °F -6.3 °F 3.2 °F 79% 29.89 in 0.8 mi NW 11.5 mph - 0.00 in Snow Light Snow
8:53 AM 7.0 °F -10.4 °F 3.0 °F 84% 30.11 in 0.8 mi NW 15.0 mph - 0.00 in Snow Light Snow
9:06 AM 6.8 °F -10.7 °F 1.4 °F 79% 29.92 in 1.0 mi NW 15.0 mph 20.7 mph 0.00 in Snow Light Snow
9:33 AM 6.8 °F -10.7 °F 1.4 °F 79% 29.92 in 1.5 mi NW 15.0 mph 27.6 mph 0.00 in Snow Light Snow
9:53 AM 6.1 °F -13.8 °F 1.0 °F 80% 30.13 in 1.2 mi NW 19.6 mph 26.5 mph 0.00 in Snow Light Snow
10:15 AM 6.8 °F -11.8 °F 1.4 °F 79% 29.93 in 1.0 mi NW 17.3 mph 25.3 mph 0.00 in Snow Light Snow
10:29 AM 6.8 °F -11.8 °F 1.4 °F 79% 29.93 in 2.0 mi NW 17.3 mph 25.3 mph 0.00 in Snow Light Snow
10:43 AM 6.8 °F -13.8 °F 1.4 °F 79% 29.91 in 4.0 mi NW 21.9 mph 28.8 mph 0.00 in   Overcast
10:53 AM 6.1 °F -13.8 °F 1.0 °F 80% 30.13 in 5.0 mi NW 19.6 mph 31.1 mph 0.00 in Snow Blowing Snow
11:14 AM 6.8 °F -15.9 °F 1.4 °F 79% 29.93 in 2.0 mi NW 27.6 mph 33.4 mph N/A Snow Blowing Snow
11:21 AM 6.8 °F -14.7 °F 1.4 °F 79% 29.92 in 1.8 mi WNW 24.2 mph 33.4 mph N/A Snow Blowing Snow
11:39 AM 6.8 °F -15.5 °F 1.4 °F 79% 29.94 in 0.8 mi WNW 26.5 mph 34.5 mph 0.00 in Snow Light Snow
11:53 AM 6.1 °F -16.5 °F 1.0 °F 80% 30.16 in 0.5 mi NW 26.5 mph 35.7 mph 0.00 in Snow Snow
12:15 PM 6.8 °F -13.8 °F 1.4 °F 79% 29.93 in 0.2 mi NW 21.9 mph 34.5 mph 0.00 in Snow Heavy Snow
12:42 PM 6.8 °F -14.3 °F 1.4 °F 79% 29.94 in 0.5 mi WNW 23.0 mph 33.4 mph 0.00 in Snow Snow
12:53 PM 6.1 °F -16.5 °F 1.0 °F 80% 30.13 in 0.5 mi WNW 26.5 mph 38.0 mph 0.00 in Snow Snow
1:21 PM 6.8 °F -14.7 °F 1.4 °F 79% 29.94 in 0.8 mi WNW 24.2 mph 32.2 mph 0.00 in Snow Light Snow
1:42 PM 6.8 °F -15.5 °F 1.4 °F 79% 29.94 in 1.0 mi WNW 26.5 mph 31.1 mph 0.00 in Snow Light Snow
1:53 PM 6.1 °F -14.3 °F 1.0 °F 80% 30.17 in 1.0 mi WNW 20.7 mph 31.1 mph 0.00 in Snow Light Snow
2:33 PM 6.8 °F -13.4 °F 1.4 °F 79% 29.97 in 2.5 mi WNW 20.7 mph 28.8 mph 0.00 in   Overcast
2:53 PM 6.1 °F -14.8 °F 1.0 °F 80% 30.20 in 3.0 mi WNW 21.9 mph 28.8 mph 0.00 in   Haze
3:53 PM 5.0 °F -15.7 °F -2.0 °F 73% 30.22 in 5.0 mi NW 20.7 mph 27.6 mph 0.00 in   Haze
4:53 PM 3.9 °F -17.1 °F -2.9 °F 73% 30.25 in 10.0 mi WNW 20.7 mph 26.5 mph N/A   Mostly Cloudy
5:53 PM 1.9 °F -18.7 °F -5.1 °F 72% 30.27 in 10.0 mi WNW 18.4 mph - N/A   Clear
6:53 PM 1.0 °F -18.0 °F -6.0 °F 72% 30.30 in 10.0 mi WNW 15.0 mph 21.9 mph N/A   Clear
7:53 PM 1.0 °F -20.9 °F -6.0 °F 72% 30.31 in 7.0 mi WNW 20.7 mph - N/A   Clear
8:53 PM -0.0 °F -20.1 °F -6.0 °F 76% 30.34 in 10.0 mi WNW 16.1 mph - N/A   Clear
9:53 PM 1.0 °F -22.4 °F -7.1 °F 69% 30.35 in 8.0 mi WNW 24.2 mph 31.1 mph N/A   Clear
10:53 PM -0.0 °F -20.7 °F -7.1 °F 72% 30.38 in 10.0 mi WNW 17.3 mph - N/A   Clear
11:53 PM -2.0 °F -18.7 °F -9.9 °F 69% 30.40 in 10.0 mi SW 10.4 mph - N/A   Clear